[TLELIST] Archives

 

[TLELIST] Current TLEs

May 28th 2026 PDT

0 HST 1 20580U 90037B 26148.25704248 .00007128 00000-0 22699-3 0 9996 2 20580 28.4729 216.7651 0001346 289.7215 70.3236 15.30520241785515 0 ISS (ZARYA) 1 25544U 98067A 26148.13113954 .00011691 00000-0 21663-3 0 9997 2 25544 51.6335 39.3887 0007375 106.1024 254.0777 15.49434162568649 0 CXO 1 25867U 99040B 26150.86411335 .00000496 00000-0 00000-0 0 9994 2 25867 55.8837 117.1443 7862481 310.3837 0.0320 0.37800688 17258 ...Continue Reading

[TLELIST] Current TLEs

May 27th 2026 PDT

0 HST 1 20580U 90037B 26147.27895352 .00007213 00000-0 22988-3 0 9990 2 20580 28.4731 223.4468 0001309 274.1121 85.9326 15.30507738785363 0 ISS (ZARYA) 1 25544U 98067A 26147.16367648 .00012541 00000-0 23194-3 0 9996 2 25544 51.6335 44.1780 0007391 102.4616 257.7200 15.49411560568490 0 CXO 1 25867U 99040B 26148.21998181 .00000426 00000-0 00000-0 0 9992 2 25867 55.8621 117.1917 7866111 310.4222 0.0280 0.37805843 17240 ...Continue Reading

[TLELIST] Current TLEs

May 26th 2026 PDT

0 HST 1 20580U 90037B 26146.30085647 .00006627 00000-0 21072-3 0 9992 2 20580 28.4732 230.1289 0001285 261.2187 98.8263 15.30494849785217 0 ISS (ZARYA) 1 25544U 98067A 26146.19619863 .00012013 00000-0 22272-3 0 9997 2 25544 51.6332 48.9673 0007421 99.1432 261.0396 15.49386458568347 0 CXO 1 25867U 99040B 26148.21998181 .00000426 00000-0 00000-0 0 9992 2 25867 55.8621 117.1917 7866111 310.4222 0.0280 0.37805843 17240 ...Continue Reading

[TLELIST] Current TLEs

May 25th 2026 PDT

0 HST 1 20580U 90037B 26144.93150809 .00005711 00000-0 18067-3 0 9995 2 20580 28.4734 239.4838 0001255 242.4756 117.5713 15.30477719785004 0 ISS (ZARYA) 1 25544U 98067A 26145.16420519 .00009873 00000-0 18471-3 0 9997 2 25544 51.6330 54.0759 0007478 95.4333 264.7509 15.49361343568183 0 CXO 1 25867U 99040B 26145.57568504 .00000437 00000-0 00000-0 0 9992 2 25867 55.8479 117.2365 7871499 310.4614 0.0224 0.37808626 17238 ...Continue Reading

[TLELIST] Current TLEs

May 24th 2026 PDT

0 HST 1 20580U 90037B 26143.56214552 .00005181 00000-0 16332-3 0 9993 2 20580 28.4737 248.8387 0001366 221.0087 139.0406 15.30462215784791 0 ISS (ZARYA) 1 25544U 98067A 26144.19669721 .00007438 00000-0 14130-3 0 9992 2 25544 51.6327 58.8652 0007496 92.3340 267.8507 15.49341091568031 0 CXO 1 25867U 99040B 26145.57568504 .00000437 00000-0 00000-0 0 9992 2 25867 55.8479 117.2365 7871499 310.4614 0.0224 0.37808626 17238 ...Continue Reading

[TLELIST] Current TLEs

May 23rd 2026 PDT

0 HST 1 20580U 90037B 26142.64923016 .00005210 00000-0 16433-3 0 9998 2 20580 28.4740 255.0753 0001441 208.0715 151.9803 15.30452947784659 0 ISS (ZARYA) 1 25544U 98067A 26142.51965852 .00007327 00000-0 13945-3 0 9990 2 25544 51.6330 67.1668 0007537 86.3178 273.8672 15.49313075567774 0 CXO 1 25867U 99040B 26145.57568503 .00000437 00000-0 00000+0 0 9990 2 25867 55.8479 117.2365 7871499 310.4614 0.0224 0.37808626 17238 ...Continue Reading

[TLELIST] Current TLEs

May 22nd 2026 PDT

0 HST 1 20580U 90037B 26141.54068256 .00005122 00000-0 16146-3 0 9995 2 20580 28.4744 262.6481 0001536 193.8764 166.1790 15.30441618784482 0 ISS (ZARYA) 1 25544U 98067A 26142.19714759 .00006944 00000-0 13263-3 0 9999 2 25544 51.6329 68.7630 0007536 85.1158 275.0691 15.49307197567720 0 CXO 1 25867U 99040B 26142.93065120 .00000519 00000-0 00000-0 0 9996 2 25867 55.8201 117.2945 7878376 310.4889 359.9500 0.37806180 17225 ...Continue Reading

[TLELIST] Current TLEs

May 21st 2026 PDT

0 HST 1 20580U 90037B 26140.69296433 .00004794 00000-0 15071-3 0 9990 2 20580 28.4746 268.4391 0001569 182.9963 177.0623 15.30432683784358 0 ISS (ZARYA) 1 25544U 98067A 26141.16510469 .00005835 00000-0 11282-3 0 9994 2 25544 51.6328 73.8715 0007529 81.3651 278.8190 15.49291753567565 0 CXO 1 25867U 99040B 26142.93065120 .00000519 00000-0 00000-0 0 9996 2 25867 55.8201 117.2945 7878376 310.4889 359.9500 0.37806180 17225 ...Continue Reading

[TLELIST] Current TLEs

May 20th 2026 PDT

0 HST 1 20580U 90037B 26140.04086980 .00004952 00000-0 15593-3 0 9998 2 20580 28.4748 272.8935 0001618 175.4764 184.5847 15.30427240784257 0 ISS (ZARYA) 1 25544U 98067A 26140.13305209 .00004938 00000-0 96790-4 0 9995 2 25544 51.6329 78.9799 0007535 77.7466 282.4366 15.49278426567405 0 CXO 1 25867U 99040B 26142.93065120 .00000519 00000-0 00000-0 0 9996 2 25867 55.8201 117.2945 7878376 310.4889 359.9500 0.37806180 17225 ...Continue Reading

[TLELIST] Current TLEs

May 19th 2026 PDT

0 HST 1 20580U 90037B 26139.06272356 .00004780 00000-0 15030-3 0 9997 2 20580 28.4748 279.5747 0001696 164.4919 195.5729 15.30417978784100 0 ISS (ZARYA) 1 25544U 98067A 26139.16549517 .00005281 00000-0 10297-3 0 9997 2 25544 51.6326 83.7685 0007549 74.4022 285.7799 15.49268281567254 0 CXO 1 25867U 99040B 26140.28492096 .00000595 00000-0 00000-0 0 9992 2 25867 55.7802 117.3662 7885402 310.4951 359.8201 0.37805204 17218 ...Continue Reading
  • This mailing list is a public mailing list - anyone may join or leave, at any time.
  • This mailing list is announce-only.

International Space Station (ISS) / Hubble Space Telescope (HST) / Chandra X-Ray Observatory Orbital Data via EMAIL

Privacy Policy:

Private list